Weather History for Lorain / Elyria, OH

Change the Weather History Date:

Sunday, December 30, 2012

  Actual Average (KCLE) Record (KCLE)
Temperature  
Mean Temperature 22 °F 29 °F  
Max Temperature 27 °F 35 °F 63 °F (1971)
Min Temperature 18 °F 23 °F -12 °F (1880)
Degree Days  
Heating Degree Days 42 36  
Month to date heating degree days 975  
Since 1 July heating degree days 2070  
Cooling Degree Days 0 0  
Month to date cooling degree days 0  
Year to date cooling degree days 817  
Moisture  
Dew Point 19 °F    
Average Humidity 81    
Maximum Humidity 86    
Minimum Humidity 74    
Precipitation  
Precipitation 0.00 in 0.10 in 2.39 in (1992)
Month to date precipitation 3.00  
Year to date precipitation 39.04  
Snow  
Snow 0.00 in 0.50 in - ()
Month to date snowfall 13.5  
Since 1 July snowfall 18.0  
Snow Depth -    
Sea Level Pressure  
Sea Level Pressure 30.27 in    
Wind  
Wind Speed 12 mph (West)    
Max Wind Speed 21 mph    
Max Gust Speed 26 mph    
Visibility 6 miles    
Events Snow    
T = Trace of Precipitation, MM = Missing Value Source: NWS Daily Summary

Daily Weather History Graph

Daily Weather History Graph

Search for Another Location

Airport:

Trip Planner

Search our weather history database for the weather conditions in past years. The results will help you decide how hot, cold, wet, or windy it might be!

Date:

Astronomy

Dec. 30, 2012 Rise Set
Actual Time 7:54 AM EST 5:08 PM EST
Civil Twilight 7:23 AM EST 5:39 PM EST
Nautical Twilight 6:48 AM EST 6:14 PM EST
Astronomical Twilight 6:14 AM EST 6:48 PM EST
Moon 7:40 PM EST (12/30) 9:01 AM EST (12/30)
Length of Visible Light 10h 16m
Length of Day
9h 14m
Waning Gibbous, 95% of the Moon is Illuminated
Dec 30
Waning Gibbous
Jan 4
Last Quarter
Jan 11
New
Jan 18
First Quarter
Jan 26
Full

Hourly Weather History & Observations

Time (EST) Temp. Windchill Dew Point Humidity Pressure Visibility Wind Dir Wind Speed Gust Speed Precip Events Conditions
1:53 AM 27.0 °F 16.1 °F 21.9 °F 81% 30.10 in 10.0 mi WNW 12.7 mph - N/A   Overcast
2:53 AM 25.0 °F 16.3 °F 21.0 °F 85% 30.14 in 10.0 mi West 8.1 mph - N/A   Mostly Cloudy
3:45 AM 26.6 °F 16.2 °F 21.2 °F 80% 30.14 in 9.0 mi WNW 11.5 mph - N/A   Overcast
3:53 AM 26.1 °F 16.8 °F 21.0 °F 81% 30.17 in 10.0 mi WNW 9.2 mph - N/A   Overcast
4:11 AM 26.6 °F 17.5 °F 21.2 °F 80% 30.15 in 9.0 mi West 9.2 mph - N/A   Overcast
4:37 AM 26.6 °F 16.2 °F 21.2 °F 80% 30.16 in 6.0 mi West 11.5 mph - 0.00 in Snow Light Snow
4:53 AM 25.0 °F 13.6 °F 21.0 °F 85% 30.20 in 4.0 mi West 12.7 mph - 0.00 in Snow Light Snow
5:13 AM 24.8 °F 14.6 °F 21.2 °F 86% 30.18 in 3.0 mi West 10.4 mph - 0.00 in Snow Light Snow
5:24 AM 26.6 °F 16.8 °F 21.2 °F 80% 30.18 in 2.0 mi West 10.4 mph - 0.00 in Snow Light Snow
5:53 AM 26.1 °F 17.6 °F 21.9 °F 84% 30.22 in 1.2 mi West 8.1 mph - 0.00 in Snow Light Snow
6:13 AM 26.6 °F 16.2 °F 23.0 °F 86% 30.20 in 2.5 mi West 11.5 mph - 0.00 in Snow Light Snow
6:15 AM 26.6 °F 17.5 °F 23.0 °F 86% 30.20 in 3.0 mi West 9.2 mph - 0.00 in Snow Light Snow
6:21 AM 26.6 °F 17.5 °F 23.0 °F 86% 30.21 in 2.5 mi West 9.2 mph - 0.00 in Snow Light Snow
6:35 AM 26.6 °F 16.8 °F 23.0 °F 86% 30.22 in 4.0 mi West 10.4 mph - 0.00 in Snow Light Snow
6:53 AM 27.0 °F 18.0 °F 23.0 °F 85% 30.25 in 4.0 mi West 9.2 mph 17.3 mph 0.00 in Snow Light Snow
7:31 AM 26.6 °F 17.5 °F 23.0 °F 86% 30.24 in 2.5 mi West 9.2 mph - 0.00 in Snow Light Snow
7:40 AM 26.6 °F 15.2 °F 23.0 °F 86% 30.24 in 4.0 mi West 13.8 mph - 0.00 in Snow Light Snow
7:53 AM 27.0 °F 16.7 °F 23.0 °F 85% 30.28 in 3.0 mi West 11.5 mph - 0.00 in Snow Light Snow
8:12 AM 26.6 °F 15.2 °F 23.0 °F 86% 30.26 in 2.5 mi West 13.8 mph - 0.00 in Snow Light Snow
8:28 AM 26.6 °F 14.7 °F 21.2 °F 80% 30.26 in 3.0 mi West 15.0 mph 21.9 mph 0.00 in Snow Light Snow
8:53 AM 27.0 °F 14.7 °F 21.9 °F 81% 30.31 in 5.0 mi West 16.1 mph 24.2 mph 0.00 in   Haze
9:53 AM 26.1 °F 14.0 °F 21.0 °F 81% 30.33 in 6.0 mi West 15.0 mph - N/A   Haze
10:53 AM 25.0 °F 10.6 °F 19.9 °F 81% 30.37 in 7.0 mi West 20.7 mph 26.5 mph N/A   Overcast
11:53 AM 24.1 °F 10.6 °F 19.0 °F 81% 30.36 in 7.0 mi West 17.3 mph 25.3 mph 0.00 in   Overcast
12:53 PM 24.1 °F 10.6 °F 18.0 °F 77% 30.36 in 8.0 mi West 17.3 mph - N/A   Overcast
1:53 PM 23.0 °F 8.0 °F 16.0 °F 74% 30.35 in 8.0 mi WSW 20.7 mph - N/A   Overcast
2:53 PM 23.0 °F 10.1 °F 16.0 °F 74% 30.35 in 8.0 mi WSW 15.0 mph - N/A   Overcast
3:53 PM 21.9 °F 7.8 °F 16.0 °F 78% 30.37 in 7.0 mi WSW 17.3 mph - N/A   Overcast
4:27 PM 21.2 °F 10.9 °F 15.8 °F 80% 30.34 in 7.0 mi SW 9.2 mph - N/A   Mostly Cloudy
4:48 PM 21.2 °F 7.8 °F 14.0 °F 74% 30.32 in 8.0 mi WSW 15.0 mph - N/A   Scattered Clouds
4:53 PM 21.0 °F 9.3 °F 14.0 °F 74% 30.36 in 8.0 mi WSW 11.5 mph - N/A   Partly Cloudy
5:53 PM 19.0 °F 8.2 °F 12.9 °F 77% 30.34 in 8.0 mi SW 9.2 mph - N/A   Clear
6:53 PM 19.0 °F 9.0 °F 12.9 °F 77% 30.35 in 8.0 mi SW 8.1 mph - N/A   Clear
7:53 PM 19.0 °F 9.0 °F 12.9 °F 77% 30.35 in 8.0 mi SW 8.1 mph - N/A   Clear
8:53 PM 18.0 °F 7.7 °F 12.0 °F 78% 30.35 in 8.0 mi SW 8.1 mph - N/A   Clear
9:53 PM 18.0 °F 6.9 °F 12.0 °F 78% 30.34 in 8.0 mi SW 9.2 mph - N/A   Clear
10:53 PM 19.9 °F 9.3 °F 14.0 °F 78% 30.32 in 9.0 mi SSW 9.2 mph - N/A   Clear
11:53 PM 21.9 °F 10.4 °F 15.1 °F 75% 30.30 in 10.0 mi SW 11.5 mph - N/A   Clear